TVS101 LKMT-EPKT

Flight info

Callsign TVS101
Flight time N/A
Altitude 11000
Route BAVOK
Aircraft A320/M-SDE2E3FGIJ1RWXY/H

Departure

Time 2026-05-06 17:40
Airport Leoš Janáček Airport Ostrava (LKMT)

Arrival

Time N/A
Airport Katowice Wojciech Korfanty International Airport (EPKT)
Time Latitude Longitude Altitude Speed Heading
2026-05-06 17:04 49.69531 18.11918 832 ft 0 kts 175°
2026-05-06 17:12 49.69532 18.11918 859 ft 0 kts 175°
2026-05-06 17:12 49.69532 18.11917 859 ft 0 kts 175°
2026-05-06 17:13 49.69532 18.11918 859 ft 0 kts 175°
2026-05-06 17:13 49.69532 18.11917 859 ft 0 kts 175°
2026-05-06 17:13 49.69532 18.11918 859 ft 0 kts 175°
2026-05-06 17:13 49.69532 18.11917 859 ft 0 kts 175°
2026-05-06 17:36 49.69529 18.11901 832 ft 1 kts 262°
2026-05-06 17:36 49.69578 18.11845 830 ft 13 kts 328°
2026-05-06 17:36 49.69656 18.11844 828 ft 13 kts 45°
2026-05-06 17:36 49.69721 18.11952 827 ft 15 kts 46°
2026-05-06 17:37 49.69798 18.12075 826 ft 18 kts 45°
2026-05-06 17:37 49.69901 18.12239 824 ft 23 kts 47°
2026-05-06 17:37 49.69990 18.12381 825 ft 11 kts 45°
2026-05-06 17:37 49.70050 18.12455 824 ft 11 kts
2026-05-06 17:38 49.70113 18.12389 825 ft 11 kts 316°
2026-05-06 17:38 49.70159 18.12321 826 ft 8 kts 316°
2026-05-06 17:38 49.70194 18.12269 826 ft 7 kts 316°
2026-05-06 17:38 49.70207 18.12250 826 ft 0 kts 316°
2026-05-06 17:39 49.70253 18.12181 826 ft 15 kts 316°
2026-05-06 17:39 49.70265 18.12120 827 ft 5 kts 238°
2026-05-06 17:39 49.70256 18.12105 827 ft 0 kts 227°
2026-05-06 17:40 49.70243 18.12084 827 ft 23 kts 227°
2026-05-06 17:40 49.69890 18.11513 832 ft 118 kts 226°
2026-05-06 17:40 49.69196 18.10356 1220 ft 154 kts 225°
2026-05-06 17:40 49.68453 18.09154 2256 ft 158 kts 225°
2026-05-06 17:41 49.67700 18.07911 3302 ft 158 kts 225°
2026-05-06 17:41 49.66935 18.06592 4070 ft 170 kts 223°
2026-05-06 17:41 49.66084 18.05207 4767 ft 188 kts 221°
2026-05-06 17:41 49.65121 18.03670 5373 ft 212 kts 226°
2026-05-06 17:42 49.64567 18.01377 6014 ft 254 kts 263°
2026-05-06 17:42 49.65108 17.98636 6982 ft 285 kts 299°
2026-05-06 17:42 49.66595 17.96504 8183 ft 299 kts 323°
2026-05-06 17:42 49.68433 17.94955 9478 ft 304 kts 332°
2026-05-06 17:43 49.70404 17.93545 10278 ft 324 kts 333°
2026-05-06 17:43 49.72538 17.92030 10601 ft 348 kts 336°
2026-05-06 17:43 49.74913 17.91072 10750 ft 358 kts 350°
2026-05-06 17:43 49.77495 17.90895 10790 ft 381 kts
2026-05-06 17:44 49.80109 17.91692 10789 ft 386 kts 19°
2026-05-06 17:44 49.82479 17.93602 10786 ft 385 kts 37°
2026-05-06 17:44 49.84484 17.96341 10787 ft 385 kts 44°
2026-05-06 17:44 49.86427 17.99176 10783 ft 384 kts 45°
2026-05-06 17:45 49.88364 18.02031 10789 ft 385 kts 45°
2026-05-06 17:45 49.90304 18.04893 10789 ft 384 kts 45°
2026-05-06 17:45 49.92246 18.07748 10790 ft 385 kts 44°
2026-05-06 17:45 49.94194 18.10607 10793 ft 385 kts 44°
2026-05-06 17:46 49.96137 18.13459 10796 ft 385 kts 44°
2026-05-06 17:46 49.98089 18.16324 10789 ft 386 kts 44°
2026-05-06 17:46 50.00005 18.19239 10786 ft 385 kts 49°
2026-05-06 17:46 50.01626 18.22539 10789 ft 384 kts 57°
2026-05-06 17:47 50.03144 18.25965 10790 ft 385 kts 57°
2026-05-06 17:47 50.04659 18.29392 10789 ft 385 kts 57°
2026-05-06 17:47 50.06176 18.32825 10787 ft 385 kts 57°
2026-05-06 17:47 50.07697 18.36258 10793 ft 385 kts 57°
2026-05-06 17:48 50.09220 18.39693 10791 ft 385 kts 57°
2026-05-06 17:48 50.10736 18.43121 10787 ft 385 kts 57°
2026-05-06 17:48 50.12255 18.46564 10786 ft 386 kts 57°
2026-05-06 17:48 50.13873 18.49893 10790 ft 387 kts 50°
2026-05-06 17:49 50.15635 18.53071 10794 ft 388 kts 50°
2026-05-06 17:49 50.17396 18.56254 10789 ft 388 kts 50°
2026-05-06 17:49 50.19154 18.59440 10796 ft 387 kts 50°
2026-05-06 17:49 50.20911 18.62625 10791 ft 387 kts 50°
2026-05-06 17:50 50.22695 18.65800 10787 ft 388 kts 47°
2026-05-06 17:50 50.24719 18.68581 10794 ft 389 kts 38°
2026-05-06 17:50 50.25299 18.69285 10789 ft 389 kts 38°
2026-05-06 17:51 50.27248 18.71503 10770 ft 389 kts 37°
2026-05-06 17:51 50.29400 18.74045 10771 ft 389 kts 38°
2026-05-06 17:51 50.31541 18.76681 10775 ft 389 kts 39°
2026-05-06 17:51 50.33652 18.79329 10776 ft 389 kts 39°
2026-05-06 17:52 50.35647 18.82171 10780 ft 389 kts 49°
2026-05-06 17:52 50.37232 18.85580 10782 ft 386 kts 62°
2026-05-06 17:52 50.38326 18.89404 10782 ft 383 kts 74°
2026-05-06 17:52 50.38882 18.93423 10735 ft 368 kts 87°
2026-05-06 17:53 50.38949 18.97295 10555 ft 341 kts 94°
2026-05-06 17:53 50.38926 19.00858 10210 ft 315 kts 94°
2026-05-06 17:53 50.38904 19.04221 9830 ft 303 kts 95°
2026-05-06 17:53 50.38884 19.07465 9431 ft 296 kts 95°
2026-05-06 17:54 50.38860 19.10663 9034 ft 292 kts 95°
2026-05-06 17:54 50.38837 19.13829 8647 ft 289 kts 95°
2026-05-06 17:54 50.38815 19.16963 8263 ft 287 kts 95°
2026-05-06 17:54 50.38794 19.20059 7892 ft 280 kts 95°
2026-05-06 17:55 50.38778 19.23015 7509 ft 264 kts 95°
2026-05-06 17:55 50.38761 19.25852 7145 ft 260 kts 96°
2026-05-06 17:55 50.38739 19.28672 6778 ft 258 kts 95°
2026-05-06 17:55 50.38718 19.31483 6418 ft 257 kts 95°
2026-05-06 17:56 50.38700 19.34275 6052 ft 255 kts 95°
2026-05-06 17:56 50.38684 19.37041 5752 ft 250 kts 95°
2026-05-06 17:56 50.38667 19.39760 5600 ft 250 kts 95°
2026-05-06 17:56 50.38652 19.42483 5450 ft 249 kts 95°
2026-05-06 17:57 50.38637 19.45202 5300 ft 250 kts 95°
2026-05-06 17:57 50.38882 19.47861 5155 ft 254 kts 70°
2026-05-06 17:57 50.39943 19.50069 5001 ft 249 kts 37°
2026-05-06 17:57 50.41455 19.51099 4890 ft 237 kts
2026-05-06 17:58 50.43084 19.51196 4802 ft 234 kts 357°
2026-05-06 17:58 50.44711 19.51124 4693 ft 232 kts 345°
2026-05-06 17:58 50.46146 19.50139 4596 ft 222 kts 316°
2026-05-06 17:58 50.47099 19.48330 4492 ft 210 kts 290°
2026-05-06 17:59 50.47440 19.46217 4388 ft 195 kts 266°
2026-05-06 17:59 50.47452 19.44113 4284 ft 190 kts 265°
2026-05-06 17:59 50.47463 19.42078 4261 ft 185 kts 265°
2026-05-06 17:59 50.47474 19.40078 4295 ft 182 kts 265°
2026-05-06 18:00 50.47483 19.38092 4288 ft 182 kts 265°
2026-05-06 18:00 50.47493 19.36097 4153 ft 183 kts 265°
2026-05-06 18:00 50.47503 19.34112 3942 ft 179 kts 265°
2026-05-06 18:00 50.47513 19.32195 3720 ft 171 kts 266°
2026-05-06 18:01 50.47522 19.30374 3508 ft 164 kts 266°
2026-05-06 18:01 50.47531 19.28695 3317 ft 145 kts 264°
2026-05-06 18:01 50.47538 19.27156 3126 ft 139 kts 265°
2026-05-06 18:01 50.47543 19.25651 2943 ft 137 kts 265°
2026-05-06 18:02 50.47547 19.24166 2776 ft 135 kts 264°
2026-05-06 18:02 50.47555 19.22695 2616 ft 134 kts 264°
2026-05-06 18:02 50.47567 19.21219 2415 ft 138 kts 265°
2026-05-06 18:02 50.47569 19.19711 2272 ft 139 kts 264°
2026-05-06 18:03 50.47596 19.18201 2098 ft 137 kts 262°
2026-05-06 18:03 50.47616 19.16676 1883 ft 140 kts 257°
2026-05-06 18:03 50.47655 19.15147 1729 ft 139 kts 259°
2026-05-06 18:03 50.47649 19.13651 1443 ft 138 kts 258°
2026-05-06 18:04 50.47636 19.12162 1317 ft 136 kts 258°
2026-05-06 18:04 50.47604 19.10677 1131 ft 136 kts 260°
2026-05-06 18:04 50.47600 19.09197 1014 ft 132 kts 266°
2026-05-06 18:04 50.47584 19.08136 1051 ft 118 kts 293°